RH
14 13 13 13 11 11 8 8 13 38 81 96 94 97 92 90 90 88 90 89 88 89 90 85 73 67 69 79 78 66 62 60 57 54 52 52 53 54 55 55 49 47 49 55 59 59 58 57 58 55 49 41 30 22 18 13 12 11 10 9 8 6 5 5 4 4 3 4 4 4 3 4 4 4 4 4 5 5 5 5 4 4 4 4 5 4 4 4
14 14 14 13 12 11 9 9 11 32 71 94 97 98 93 91 92 91 92 91 91 95 98 91 81 81 82 82 78 66 59 57 55 53 52 53 55 57 59 57 53 53 56 59 60 61 63 61 53 42 32 25 20 15 13 12 10 9 8 6 5 5 4 4 4 3 3 4 4 5 4 4 4 5 5 5 5 5 5 5 5 5 5 5 4 4 4 4
14 14 14 13 12 10 9 8 11 28 51 77 97 99 92 86 84 86 86 87 87 88 90 88 85 88 90 84 74 64 61 60 56 55 55 56 58 60 62 60 59 59 61 63 63 62 60 50 36 25 19 16 14 13 11 10 8 7 5 5 4 4 4 4 4 3 4 4 5 5 5 5 5 5 5 5 6 6 5 5 5 5 5 5 5 5 5 5
14 14 14 13 11 9 11 8 11 26 34 62 95 98 90 80 75 78 77 75 72 70 73 75 79 82 84 82 75 67 65 62 60 62 60 58 61 64 65 63 62 64 66 63 54 44 36 28 21 17 15 13 12 11 9 7 6 5 5 4 4 4 4 4 4 4 4 4 5 5 6 6 6 6 6 6 6 6 6 6 6 6 6 6 5 5 5 5
14 14 13 12 11 10 10 9 11 23 36 67 95 95 89 78 67 66 64 65 65 64 64 65 71 76 79 80 75 70 66 65 68 71 68 65 66 66 66 65 66 67 61 47 33 25 21 18 16 15 13 12 10 8 6 5 5 4 4 4 4 4 4 4 4 4 5 5 5 6 6 6 6 6 6 7 7 7 7 7 7 6 6 7 6 6 6 6
14 13 13 11 11 11 11 10 11 23 50 80 94 92 89 75 65 65 62 62 64 64 63 64 68 71 73 74 71 70 71 73 75 77 75 70 67 66 68 68 64 55 41 28 22 19 17 15 14 13 11 9 7 5 5 4 4 4 4 4 4 4 4 5 4 5 5 5 6 6 6 7 7 7 7 8 8 8 8 8 8 7 7 7 8 8 8 8
13 12 12 12 12 13 11 8 17 42 72 91 95 93 87 77 78 82 73 63 63 66 70 72 74 75 74 73 73 76 78 79 79 78 74 72 70 69 65 59 46 33 25 21 19 17 15 13 11 9 7 6 5 5 5 4 4 4 4 4 4 4 4 5 5 5 6 6 6 7 7 7 7 8 8 9 8 9 9 9 9 9 10 10 10 10 10 10
13 13 12 14 14 12 10 17 42 73 92 98 99 97 90 86 91 91 79 71 71 74 78 79 80 82 81 81 83 86 83 81 82 78 75 76 72 60 46 36 28 22 20 18 16 14 12 10 7 6 5 5 5 5 4 4 4 4 4 5 5 5 5 5 5 6 6 6 7 7 8 8 9 9 10 10 10 10 10 10 11 11 12 12 12 12 12 12
14 15 14 16 14 12 20 43 72 91 97 100 100 97 95 95 94 89 83 82 82 82 83 82 82 83 83 83 86 90 86 82 84 80 74 66 52 38 28 24 21 19 17 15 14 11 8 6 5 5 5 5 5 4 5 4 4 4 4 5 5 5 5 5 5 6 7 7 8 9 9 9 10 10 11 11 10 10 11 12 13 13 13 13 13 14 14 14
16 16 17 16 14 23 44 71 89 96 98 100 99 98 99 100 97 94 92 90 89 88 87 84 84 85 85 87 92 93 83 75 75 68 57 45 33 26 23 21 19 16 15 12 10 7 5 5 5 5 5 5 5 5 5 5 5 5 5 5 5 6 6 6 6 6 7 8 8 10 11 10 11 11 12 11 11 12 13 14 14 14 14 14 15 15 15 15
20 18 18 21 32 49 68 87 96 97 98 98 99 100 100 101 100 98 97 94 93 92 89 87 89 91 90 90 89 80 66 55 50 41 34 29 25 23 20 19 17 14 11 7 6 5 5 5 5 5 5 5 5 5 5 5 5 5 5 6 6 6 6 6 7 7 8 8 10 12 13 12 11 12 12 11 12 13 14 14 14 15 15 15 15 16 16 16
33 30 33 47 63 74 83 96 100 98 99 98 99 100 100 101 100 99 97 94 91 88 86 86 87 86 79 71 63 52 42 36 31 27 25 23 21 19 17 15 12 9 7 5 5 5 5 5 5 5 5 5 5 6 6 5 6 6 6 6 7 7 7 7 8 8 8 9 11 14 16 15 13 13 13 12 13 14 14 14 15 15 16 16 16 16 16 17
51 51 62 76 81 83 91 100 100 98 100 100 100 101 100 100 98 96 93 87 81 74 71 70 67 60 51 44 39 33 30 28 26 25 23 20 18 16 13 10 7 6 5 5 5 5 5 5 5 5 5 5 6 6 6 6 6 6 6 7 7 8 8 9 9 9 10 11 12 14 16 16 15 14 14 14 14 15 16 16 16 17 17 17 17 18 18 18
67 72 82 86 82 80 88 97 99 100 100 100 100 99 97 96 93 90 84 76 66 57 53 48 42 37 33 31 30 29 28 27 26 24 21 18 15 12 9 6 5 5 5 5 5 5 5 5 5 6 6 6 6 7 7 7 7 7 7 7 8 9 9 10 11 11 11 13 13 14 16 17 16 15 14 15 16 17 19 19 19 19 19 20 20 20 21 21
82 83 84 84 80 76 78 86 94 97 96 95 95 94 93 91 86 79 73 65 56 49 42 37 33 31 30 29 28 28 27 26 24 21 18 14 10 8 7 6 6 6 5 5 5 5 5 6 6 6 7 6 7 7 8 8 7 7 8 8 9 9 9 10 11 11 12 13 15 16 17 18 18 17 16 16 17 18 20 21 21 21 22 23 24 25 26 27
84 80 78 78 74 70 71 75 81 88 90 90 89 89 89 85 80 72 65 59 53 47 41 38 36 34 32 30 29 27 26 24 21 18 14 10 8 7 6 6 6 5 5 5 5 6 6 6 6 7 7 7 7 8 8 8 8 8 9 10 10 10 11 12 12 12 11 12 14 16 18 20 20 18 18 18 19 20 21 22 22 23 24 25 26 27 29 31
79 76 73 69 64 60 64 68 71 76 80 83 85 84 81 78 73 68 63 58 52 48 43 40 37 34 32 30 28 26 24 21 18 15 11 8 7 6 6 6 6 6 6 6 6 6 7 7 8 7 8 8 8 8 9 10 9 9 10 10 11 11 11 12 12 12 12 13 14 16 18 21 20 18 19 20 22 23 24 24 24 24 24 25 26 27 28 29
75 74 71 64 58 52 52 58 65 68 70 75 78 79 77 73 69 64 59 53 48 43 38 34 30 29 29 27 25 23 20 18 15 13 9 7 7 6 6 6 6 6 6 7 7 7 7 8 8 8 8 8 9 9 10 10 10 10 10 10 11 11 12 13 12 11 11 13 14 16 19 20 19 18 19 20 23 25 26 26 25 25 24 24 25 25 26 27
68 71 71 65 60 56 51 50 54 60 65 69 73 73 71 66 60 54 47 40 35 31 29 27 25 25 26 24 22 19 17 15 12 10 8 7 6 6 6 6 7 7 8 8 8 8 8 9 9 9 9 9 9 9 10 11 11 11 11 11 11 11 13 14 13 13 13 14 15 17 20 21 19 17 18 19 20 22 23 23 23 24 24 24 25 25 26 26
62 64 68 68 65 63 61 55 51 51 56 62 65 63 58 52 44 37 32 28 26 26 25 25 24 24 24 21 18 16 13 11 9 8 7 6 6 6 7 7 8 8 8 8 8 9 8 9 9 9 10 9 10 10 10 11 11 11 11 11 11 11 12 13 13 14 14 14 14 16 20 20 18 18 18 19 19 20 20 21 21 22 23 23 24 25 25 26
63 60 62 64 64 63 63 59 53 50 50 53 54 51 44 37 32 30 28 27 27 27 26 25 24 22 20 17 14 12 10 8 7 7 6 7 7 7 8 8 9 9 9 8 8 9 8 9 10 9 10 10 10 10 10 11 11 11 11 11 12 12 12 13 13 14 14 15 15 18 21 20 18 18 19 19 18 18 18 19 20 22 23 24 26 27 27 28
69 64 60 58 58 58 59 57 53 50 48 45 44 41 35 30 29 29 29 29 27 25 22 20 18 16 15 13 11 8 7 7 6 7 6 7 8 8 9 9 10 9 9 9 8 9 9 9 9 9 10 10 10 10 10 11 11 12 12 12 13 13 14 14 15 15 15 15 16 19 21 20 19 20 20 21 21 21 21 22 22 23 24 25 26 27 28 29
78 72 64 59 56 55 55 54 51 48 45 41 37 33 31 31 29 28 26 23 20 17 15 13 11 11 9 8 8 7 6 6 6 7 7 7 8 9 11 11 10 9 9 8 8 8 8 8 9 9 9 9 10 10 10 11 12 13 13 14 14 14 15 15 16 17 17 18 19 21 22 21 21 22 22 22 22 23 24 25 27 30 33 37 40 43 45 46
84 80 72 62 57 54 53 53 50 46 43 40 35 31 30 28 25 23 19 16 13 11 10 9 8 8 7 6 7 6 6 6 6 7 7 9 10 11 12 11 9 8 8 7 7 8 8 7 8 8 9 9 10 11 12 13 13 14 15 15 16 17 18 19 20 19 19 20 20 21 23 26 28 30 32 35 38 41 44 46 49 50 51 51 49 47 44 40
83 84 78 66 58 54 49 46 45 43 40 35 30 27 23 21 18 15 13 11 10 9 8 9 8 8 8 8 8 8 8 8 9 10 11 12 12 11 10 9 8 7 7 7 7 7 7 8 8 10 11 11 12 13 14 15 17 18 19 19 19 19 19 19 20 22 25 29 34 40 44 47 52 54 54 55 54 53 50 46 40 35 30 26 22 18 15 13
80 83 81 71 61 54 44 34 31 29 25 21 19 18 16 15 12 10 10 10 9 8 8 9 10 11 12 12 12 12 11 12 12 12 12 11 10 9 8 7 7 6 6 6 7 8 9 10 11 12 13 14 16 17 17 18 18 18 18 19 22 26 31 36 42 48 52 55 57 54 43 36 39 39 34 31 27 24 20 15 11 8 7 6 5 5 5 5
77 80 82 74 62 53 43 32 23 18 12 11 12 12 11 11 9 8 10 10 8 10 10 10 11 12 13 13 12 11 11 11 10 9 9 8 7 7 6 6 6 6 7 8 9 10 12 13 15 16 17 17 17 17 17 20 23 29 35 42 48 53 56 56 53 48 43 39 35 25 13 8 10 10 7 7 6 5 4 4 4 4 4 5 5 5 6 6
75 80 83 76 63 52 46 38 28 19 12 11 11 9 9 9 7 8 9 9 9 10 10 10 11 11 10 9 8 8 8 7 7 7 6 6 6 6 6 7 7 8 9 11 12 14 16 16 16 16 17 19 23 29 37 44 50 54 56 55 51 45 37 29 22 15 11 10 8 6 4 5 5 4 4 4 4 4 4 4 5 5 5 6 6 7 7 7
75 83 84 77 66 54 48 44 35 25 17 13 11 10 10 8 8 9 8 8 9 10 10 10 9 8 7 6 6 6 6 6 6 6 6 6 7 7 8 9 10 12 13 15 15 15 15 17 21 27 35 43 50 54 55 52 47 40 33 26 20 14 9 7 5 5 4 4 4 4 4 4 4 5 5 5 5 6 6 6 7 7 7 7 8 8 8 9
74 84 88 81 67 53 48 45 38 31 23 16 12 11 10 10 10 10 8 9 10 10 9 8 7 7 6 6 6 6 6 6 6 7 7 8 9 10 12 13 14 15 15 15 18 22 29 38 47 53 55 53 48 40 31 24 17 12 9 7 5 4 4 4 4 4 4 4 4 5 5 6 7 7 6 7 9 8 9 9 9 9 9 10 10 10 10 10
72 83 89 81 65 52 46 44 41 34 25 17 13 11 11 11 11 9 9 10 11 9 7 7 7 6 6 6 6 7 7 8 8 9 10 12 13 14 14 14 16 18 23 30 38 47 53 55 52 45 37 28 20 13 9 7 6 5 4 4 4 4 4 4 4 4 5 5 6 7 7 9 9 9 10 11 11 11 11 11 11 11 11 11 11 11 11 11
69 82 90 81 63 50 45 44 42 35 25 18 14 12 12 12 11 10 9 9 9 7 7 7 7 7 7 8 8 9 9 10 11 12 13 14 14 16 18 22 29 37 45 51 52 50 44 35 26 18 13 10 7 5 5 4 4 4 4 4 4 4 4 4 5 6 7 7 8 8 10 11 11 10 11 11 11 12 12 12 13 13 13 14 14 13 13 13
69 83 91 81 61 50 47 45 41 34 26 19 17 14 13 12 10 9 8 8 8 7 7 8 7 8 9 9 10 11 12 13 14 15 17 19 24 30 38 44 48 48 47 42 35 27 19 13 9 7 6 5 5 4 4 4 4 4 4 4 4 6 6 7 8 8 8 8 7 8 9 10 10 10 10 10 11 12 12 14 15 14 15 14 14 13 13 12
73 86 90 75 55 47 47 45 41 35 26 21 17 14 12 10 9 8 8 7 7 8 8 8 9 10 10 12 13 13 15 17 19 25 31 38 45 50 52 48 41 34 28 22 17 12 9 6 5 5 5 5 4 4 4 4 4 4 5 6 7 9 10 10 10 9 9 8 7 8 10 10 11 11 11 11 12 13 14 15 15 14 14 13 12 12 11 11
77 88 83 65 48 43 42 39 34 26 19 15 12 10 10 9 8 8 8 8 8 9 9 10 11 12 12 14 16 18 24 30 38 46 50 50 49 45 39 30 23 17 14 11 8 7 6 5 5 5 4 4 4 4 4 5 6 6 7 9 10 11 11 11 11 11 12 12 10 9 10 10 12 13 14 14 15 15 15 14 14 14 12 12 12 12 14 16
82 86 74 55 44 39 35 28 21 15 11 10 10 9 9 8 8 9 8 9 9 10 11 11 13 15 16 21 28 35 42 46 50 52 48 40 34 27 21 16 12 10 8 7 6 5 5 4 4 5 5 5 5 5 6 7 8 9 9 10 10 11 11 12 12 12 14 15 13 12 13 14 15 16 15 16 16 15 15 15 14 14 13 14 15 18 24 27
81 77 63 49 40 34 25 17 13 11 10 10 9 9 8 9 9 9 9 10 10 11 12 14 19 26 33 40 46 51 52 48 43 39 32 25 19 15 12 10 8 7 6 5 5 5 5 4 4 5 5 6 6 7 9 9 10 10 10 10 10 10 11 13 14 14 17 19 16 14 15 16 16 17 17 17 17 16 16 16 16 16 19 21 22 24 27 28
67 60 52 42 33 24 17 12 11 11 10 10 9 9 9 9 9 10 11 11 12 15 20 27 35 44 49 52 52 49 44 37 30 25 20 15 11 9 8 7 6 5 5 5 4 4 4 5 5 6 7 8 9 10 11 11 10 10 10 11 11 12 12 13 15 18 21 22 19 17 16 16 17 19 19 18 18 19 18 18 19 21 23 25 24 23 24 24
51 48 43 33 23 16 13 12 11 10 10 10 9 10 10 10 11 11 12 15 21 29 38 45 50 52 51 48 44 38 30 24 19 15 12 9 8 7 6 6 5 5 5 4 5 5 5 5 6 8 9 10 11 12 11 11 11 11 11 12 12 14 15 16 17 21 24 24 22 20 19 17 18 19 20 21 21 20 18 20 23 26 27 27 24 23 25 27
46 43 34 23 17 14 12 11 11 10 10 10 10 10 11 11 12 14 21 30 40 46 50 51 50 48 44 38 32 26 20 15 12 9 8 7 7 6 6 6 5 5 5 5 5 6 7 8 8 10 12 12 12 12 12 12 12 12 12 13 14 16 18 20 19 20 24 24 23 23 22 20 20 22 23 22 21 24 29 31 28 26 26 28 28 29 31 31
44 34 23 17 14 12 11 11 11 10 10 10 11 11 11 14 20 30 40 48 51 51 50 48 44 39 34 28 21 16 13 10 8 7 7 6 6 6 5 5 5 5 5 6 7 8 9 10 11 12 12 11 12 12 12 13 13 13 13 14 17 18 20 22 21 21 24 24 24 26 24 22 23 24 25 24 26 34 40 36 28 25 28 32 34 35 36 35
35 23 17 14 12 11 11 11 10 10 11 11 11 12 18 28 39 48 52 52 51 48 45 41 36 30 24 18 14 11 9 8 7 7 7 6 6 6 5 6 6 6 6 7 9 10 11 12 12 12 11 11 12 13 13 14 14 14 15 17 20 21 23 25 25 25 25 24 25 27 27 26 26 27 27 28 31 32 31 27 27 32 38 42 43 43 42 40
24 17 15 12 11 12 11 11 11 12 12 11 15 25 37 48 53 53 51 49 47 43 38 33 28 22 16 12 10 9 8 7 7 7 6 6 6 6 6 6 7 7 8 10 11 12 13 12 12 11 12 12 13 14 14 14 15 16 17 19 20 21 23 26 27 28 27 26 28 31 30 28 30 31 30 30 30 28 28 32 39 46 49 49 49 48 46 43
20 16 14 12 12 11 11 12 13 11 12 19 32 45 53 54 52 50 49 45 40 36 31 25 20 14 11 9 9 8 8 7 7 7 6 6 6 6 7 7 8 9 11 12 13 13 13 13 13 12 12 13 13 14 14 13 14 16 18 19 20 22 24 26 28 30 30 30 32 33 33 33 34 34 32 31 32 31 33 41 49 52 51 50 51 52 50 46
19 16 15 14 13 12 13 13 12 15 26 41 52 56 54 51 49 47 44 38 34 29 23 17 13 10 9 9 8 8 8 7 7 7 7 6 7 7 8 9 10 12 13 13 13 13 13 14 14 14 14 14 14 15 15 14 14 15 19 22 24 24 25 27 30 32 34 34 34 36 39 39 37 36 35 34 33 34 37 43 49 50 51 54 58 59 55 47
19 17 17 15 14 14 12 13 20 34 49 57 56 52 49 48 46 41 37 32 27 22 16 12 10 9 9 8 8 8 8 7 7 7 7 7 7 8 9 11 12 13 14 14 13 14 14 14 15 15 15 16 18 18 18 18 18 19 22 25 26 25 27 30 31 32 35 38 37 38 43 42 39 38 37 34 34 36 39 44 48 52 56 62 65 63 56 47
20 18 17 16 14 13 16 27 43 55 58 55 51 48 47 45 41 36 31 27 20 15 12 10 9 9 8 8 8 8 7 7 7 7 7 8 8 10 11 13 14 14 14 14 15 15 15 15 15 15 15 18 20 20 20 22 24 25 26 26 26 27 28 28 29 32 39 45 43 42 45 44 40 39 37 37 38 39 42 48 54 59 64 69 70 65 55 45
19 18 15 13 14 22 36 51 58 57 54 50 48 47 44 40 35 31 26 20 14 11 10 9 9 9 8 9 8 8 8 7 7 7 8 9 10 12 13 14 15 15 15 15 16 16 15 15 15 14 14 18 22 22 22 24 25 25 26 26 26 28 26 22 25 34 42 48 48 47 46 43 40 41 40 40 43 47 52 58 62 66 71 75 72 63 52 44
15 13 13 18 30 46 57 59 56 52 50 48 47 44 39 34 30 26 20 15 11 10 9 9 9 9 9 9 8 8 8 7 8 9 9 10 12 14 14 15 15 16 16 16 16 15 15 15 16 15 14 18 23 22 22 24 23 22 23 23 23 21 18 18 25 36 44 49 50 49 44 40 41 46 44 43 51 58 61 63 65 69 74 73 65 57 51 45
13 17 27 41 53 60 59 55 52 50 49 47 44 39 34 29 25 20 14 11 10 10 9 9 9 9 9 9 8 8 8 8 9 9 10 12 14 15 16 16 16 16 17 16 15 16 16 16 17 16 14 18 22 21 20 22 21 19 19 19 17 14 13 17 26 37 45 48 47 45 41 37 39 44 46 50 58 60 58 60 63 67 71 68 62 59 56 51
28 39 51 59 60 58 55 52 50 49 47 44 39 33 29 25 20 14 11 10 10 9 9 9 9 10 9 9 9 8 8 9 10 10 12 14 15 16 17 17 17 17 16 16 16 17 17 18 18 18 16 17 20 20 19 20 19 17 17 16 13 12 13 15 23 34 42 43 41 39 35 34 38 44 49 54 57 56 55 58 61 67 72 72 72 72 68 61
52 59 61 60 58 55 52 51 50 47 44 39 34 29 25 20 15 12 10 10 10 10 10 10 10 10 9 9 9 9 9 10 11 12 14 15 17 18 18 17 17 17 16 17 18 18 19 19 20 20 18 18 20 21 20 20 18 16 16 14 12 12 12 12 18 29 37 39 38 35 33 37 44 49 53 55 55 54 54 57 67 79 83 82 86 88 83 75
Wind_Speed
28 28 28 28 27 26 25 25 24 22 21 21 20 22 22 21 21 21 20 22 22 19 21 21 21 22 23 24 23 23 23 22 22 23 25 25 25 25 24 24 23 23 23 22 21 21 21 21 20 20 19 18 18 18 19 21 21 20 21 20 20 22 24 24 25 26 24 20 21 24 27 27 25 24 25 25 23 24 27 29 30 31 31 31 30 29 31 32
29 29 29 29 28 27 26 26 26 24 23 21 21 23 23 21 21 21 18 18 19 18 16 15 18 21 22 23 23 22 22 22 23 24 24 24 24 24 23 23 23 23 22 22 21 20 20 19 19 18 17 17 18 20 21 20 20 22 20 18 20 23 23 23 25 26 24 21 20 23 26 27 27 27 27 27 26 25 28 29 29 29 30 32 31 31 31 30
29 30 30 30 29 28 26 26 26 26 25 23 23 24 23 23 23 24 22 19 19 19 19 17 19 22 22 21 21 21 22 22 23 23 23 24 24 23 23 23 23 22 22 21 19 18 17 17 17 17 18 19 19 19 22 20 18 20 21 20 21 23 23 23 25 26 25 23 22 23 24 24 26 27 28 29 27 27 30 29 28 30 31 32 32 32 31 30
30 30 30 30 29 28 27 27 27 27 26 25 25 24 23 23 23 24 24 23 20 21 21 21 23 24 24 24 23 23 23 24 24 23 23 23 23 23 23 22 22 21 20 18 17 16 16 16 17 18 19 21 20 18 21 22 19 19 21 22 22 24 23 23 25 26 26 25 23 23 24 23 25 27 30 29 27 28 30 29 29 31 31 31 32 31 32 32
31 31 30 30 29 28 28 28 27 26 26 24 24 24 22 22 23 23 23 22 20 19 19 19 21 23 24 23 23 23 23 24 24 23 23 22 22 22 22 22 21 19 17 16 16 16 17 17 18 19 19 20 20 18 19 21 21 20 21 23 23 24 23 24 26 26 26 26 25 24 24 24 25 27 29 29 28 29 30 30 31 31 31 31 31 31 31 31
31 30 30 29 29 28 28 27 26 25 25 24 24 24 23 22 22 22 21 19 18 17 17 18 18 19 21 21 22 22 21 22 23 22 22 21 21 21 20 20 18 17 16 16 16 17 17 18 19 19 19 20 20 19 19 21 21 20 21 24 24 25 24 25 26 26 26 26 25 24 24 25 27 28 29 29 29 29 30 30 31 32 32 31 30 30 30 29
30 29 29 28 27 27 26 24 23 24 23 23 24 24 23 22 21 20 19 18 17 17 17 17 17 19 20 21 21 21 21 21 21 20 20 20 19 19 18 17 16 16 16 16 17 18 18 19 19 19 19 19 19 20 21 22 22 21 21 24 25 26 27 26 25 25 26 25 25 24 24 27 28 28 28 29 30 30 31 32 32 32 30 29 29 28 28 28
28 27 27 26 25 24 22 20 20 20 19 20 23 23 22 22 21 20 18 18 17 17 18 18 19 20 20 20 20 19 20 19 19 18 18 17 17 16 16 16 16 16 17 17 18 18 18 18 18 18 19 19 20 22 21 22 24 24 23 24 25 27 28 28 27 26 25 24 24 24 25 28 29 29 29 30 31 31 32 32 31 30 29 28 29 29 29 29
24 24 23 22 21 20 17 17 17 17 19 22 23 22 22 22 22 21 19 19 19 19 19 20 20 20 19 18 17 18 18 17 16 16 15 15 15 15 15 15 16 16 17 17 17 17 16 17 18 18 20 20 21 22 22 23 24 25 26 26 26 27 27 28 28 27 26 24 23 23 26 29 30 30 30 31 32 32 32 31 30 29 30 30 30 30 29 29
20 19 18 18 18 16 14 15 17 17 21 24 24 23 23 22 22 21 21 21 20 20 20 20 20 19 17 16 15 16 16 15 14 14 13 14 14 15 16 16 16 16 16 16 16 16 16 17 19 19 20 21 22 22 22 24 25 27 27 27 27 27 26 26 27 27 26 25 24 23 26 29 30 31 32 33 33 33 31 30 30 30 31 31 30 30 30 30
16 16 16 16 15 14 14 17 19 20 23 26 24 24 23 22 22 22 22 21 20 19 18 18 17 16 14 13 13 14 14 13 12 12 12 14 15 15 16 16 16 15 14 15 16 17 17 18 20 20 20 21 23 23 24 25 26 28 28 27 27 27 26 26 27 27 27 26 25 24 26 28 30 31 33 34 33 32 31 29 30 31 31 31 31 31 31 31
14 15 15 14 13 13 15 19 23 22 23 25 24 24 24 23 22 21 20 19 17 17 16 16 15 14 12 12 12 12 12 11 11 12 13 14 14 15 15 14 14 14 13 14 16 18 19 19 20 20 21 22 23 24 25 26 26 27 27 26 26 26 26 26 26 27 28 27 26 24 25 28 31 31 33 34 33 33 32 31 31 31 31 31 32 32 33 33
14 14 13 12 11 13 15 18 22 23 23 23 24 24 23 21 19 18 17 16 15 15 15 14 13 13 12 11 11 11 11 11 12 13 13 13 14 13 13 12 12 13 14 15 17 19 20 20 20 21 22 23 23 23 25 26 27 26 26 25 24 24 25 26 26 27 28 29 28 27 26 27 29 30 32 34 33 33 33 33 32 33 33 33 33 34 34 35
14 13 11 10 10 12 15 16 18 19 19 19 20 19 18 16 16 15 15 14 14 14 13 13 12 12 12 11 11 12 12 12 13 13 13 13 13 12 11 12 13 14 15 17 17 18 19 20 20 21 22 24 24 24 25 26 27 26 25 25 24 24 24 24 25 26 28 29 30 30 30 28 28 30 32 34 33 32 32 32 33 34 35 36 36 36 37 37
13 11 10 10 10 12 13 13 14 14 14 14 14 14 14 14 14 14 14 13 13 13 12 11 11 11 12 12 12 13 13 12 12 12 12 12 11 11 11 12 13 15 16 17 18 19 19 20 21 21 23 24 25 24 25 26 27 26 25 25 25 25 25 25 25 26 27 29 29 30 32 32 30 31 32 33 33 32 32 33 34 35 36 37 38 38 39 40
12 11 10 10 11 11 11 11 12 12 12 12 12 12 13 13 14 14 13 13 13 12 11 11 11 12 13 12 13 13 12 12 12 12 12 11 10 11 12 13 14 15 16 17 18 19 19 20 21 23 24 25 25 25 25 26 27 26 26 25 25 26 26 26 26 27 28 29 29 29 32 33 33 33 34 34 35 35 35 35 36 37 37 38 39 39 40 41
12 11 11 10 10 10 11 11 11 12 12 12 12 12 13 13 13 13 13 13 13 12 12 11 12 12 12 12 13 13 12 12 12 11 10 10 10 11 12 14 15 16 17 17 18 19 20 20 22 24 25 25 26 25 25 26 28 28 27 26 26 26 27 27 29 31 32 31 31 32 33 35 35 35 37 37 37 37 38 38 39 40 41 41 42 42 43 44
12 11 11 11 11 10 10 10 11 11 11 12 12 13 13 12 12 12 12 12 13 13 12 12 13 12 12 13 13 12 12 11 11 11 10 10 11 12 13 14 16 16 17 18 18 19 20 21 23 25 26 27 27 27 26 27 28 29 30 30 29 29 29 30 31 34 35 35 35 36 37 39 38 38 39 40 39 40 41 42 43 44 45 45 46 46 47 47
12 11 11 11 11 11 9 9 9 9 10 11 11 12 12 11 10 10 11 12 12 12 12 12 12 11 12 13 11 10 10 10 10 10 10 10 11 13 14 15 16 16 18 19 19 20 21 22 23 25 27 29 29 29 29 29 29 30 31 32 33 33 32 32 34 36 37 37 39 40 41 43 42 42 43 43 44 44 45 46 47 48 48 49 49 50 50 51
12 11 11 11 11 11 9 8 8 8 8 9 10 10 10 10 9 10 11 11 11 11 11 11 10 10 10 10 9 9 9 9 10 10 10 11 13 14 15 15 17 17 18 19 19 20 22 24 24 25 27 30 31 31 32 32 32 32 33 34 35 36 36 36 37 38 38 40 41 43 45 46 46 46 47 47 48 48 49 49 50 51 51 52 52 52 53 54
13 11 11 11 10 10 9 8 7 7 7 7 8 8 8 9 9 9 10 10 10 10 9 9 8 8 8 8 8 9 9 9 11 11 11 12 14 15 16 16 18 18 19 20 21 21 23 25 26 27 29 30 31 33 34 35 36 36 37 37 37 38 38 39 40 40 40 41 43 45 48 50 49 50 50 50 51 52 52 53 53 54 54 54 54 54 54 55
13 12 11 10 10 9 9 8 7 7 6 7 7 7 8 9 8 8 8 8 9 8 7 6 6 7 8 8 9 9 9 10 11 11 12 14 14 16 17 18 19 20 20 22 23 24 25 26 28 29 30 31 32 34 35 36 37 38 39 40 40 41 41 41 42 42 43 44 44 46 50 51 51 52 52 52 53 54 55 55 56 56 56 56 56 56 57 57
13 13 12 10 9 9 8 7 7 6 6 6 6 7 8 8 7 7 6 7 7 6 5 6 6 7 8 8 9 9 10 11 12 12 14 15 16 17 19 20 21 21 22 23 25 26 27 29 30 31 31 32 34 34 35 36 37 38 39 40 41 43 43 43 44 44 44 45 46 48 51 53 52 52 53 53 54 55 55 56 57 57 58 58 59 59 60 60
13 12 11 10 9 8 8 7 6 6 5 6 6 7 7 6 6 5 5 5 6 6 5 6 6 6 6 7 8 9 10 12 14 14 15 17 18 19 20 21 22 23 25 26 27 28 29 30 31 32 33 34 35 35 36 37 38 39 39 41 42 43 44 45 45 46 45 46 47 49 53 54 53 53 55 55 56 56 57 58 58 59 59 59 59 59 59 58
13 12 11 10 9 8 7 6 5 5 5 5 6 6 5 5 5 5 5 6 6 6 5 5 5 5 6 7 8 11 12 13 14 16 17 18 20 21 22 23 24 25 27 28 29 30 31 32 32 33 34 35 36 36 37 38 39 40 41 42 43 43 45 46 47 48 48 47 48 51 53 54 54 55 56 57 57 57 58 58 58 58 57 57 57 57 56 56
11 11 10 9 8 7 6 6 5 5 4 5 5 5 5 5 5 5 5 5 5 4 4 4 5 6 6 8 9 12 13 14 15 16 18 19 21 22 23 24 25 27 28 29 30 31 32 32 33 34 35 36 37 38 39 40 40 41 42 43 44 45 45 46 47 48 49 48 49 50 52 54 55 56 56 56 56 56 56 56 56 56 56 57 56 57 57 58
10 10 9 9 8 7 6 5 5 4 4 4 4 4 4 4 4 4 4 4 3 2 3 4 6 7 8 9 10 12 14 15 17 18 19 20 21 23 24 25 26 27 29 30 31 31 32 33 34 35 36 37 38 39 40 41 42 42 43 44 44 45 45 46 47 47 48 48 47 47 50 54 56 56 55 55 56 56 56 56 56 57 57 58 59 59 60 60
9 9 9 8 7 6 5 4 4 3 2 3 3 3 3 3 3 3 2 1 2 3 4 5 7 8 9 10 11 13 14 16 17 18 19 21 22 23 25 26 27 28 29 30 31 32 33 34 35 36 38 39 40 41 41 42 43 43 44 44 44 45 45 45 46 46 47 48 47 46 49 53 55 55 55 55 55 56 56 56 57 59 60 61 61 61 62 62
8 8 8 7 5 5 4 3 3 2 2 2 2 3 2 2 1 1 1 2 3 5 6 7 8 9 10 11 12 13 14 16 17 18 19 21 22 24 26 27 28 29 30 31 32 33 35 36 37 38 39 40 40 41 41 42 42 43 43 44 44 45 45 45 46 46 47 47 47 47 49 52 55 56 55 56 57 57 57 57 58 60 61 62 62 63 63 63
8 8 7 6 5 3 3 2 2 2 2 1 1 1 1 1 2 3 4 4 5 6 7 8 9 9 11 12 13 14 15 16 17 19 20 22 23 25 26 28 29 30 32 33 34 35 37 37 38 39 39 40 40 41 41 42 43 43 44 44 44 44 45 45 46 46 46 46 46 48 50 51 55 57 57 58 58 57 57 58 60 60 61 62 62 63 63 64
7 7 6 5 4 3 2 2 2 1 1 1 0 0 1 3 4 5 5 6 6 7 7 8 9 10 11 12 13 14 16 17 18 20 22 23 25 26 28 29 31 32 33 34 35 36 37 38 38 38 39 39 40 41 42 43 43 43 44 45 45 45 45 45 46 47 47 47 48 50 51 52 54 56 57 57 56 56 57 58 59 59 60 61 62 63 65 66
6 6 6 5 4 2 1 1 0 0 0 1 2 2 3 4 5 5 6 6 7 7 8 9 10 11 12 13 15 16 18 19 20 21 23 25 27 28 29 30 31 32 33 34 35 36 36 37 38 39 39 40 40 41 41 42 43 43 44 45 46 47 47 46 47 49 50 50 50 52 54 54 55 56 56 56 57 57 58 58 59 59 60 62 63 65 66 67
6 6 5 5 4 3 2 1 1 1 2 2 3 3 3 4 4 5 6 7 7 8 9 10 11 12 14 15 17 18 20 21 22 23 25 26 28 29 30 31 32 33 34 35 35 35 36 37 38 39 40 41 41 41 41 42 43 44 44 46 48 49 50 50 51 52 54 53 53 54 56 58 59 60 59 60 61 61 61 61 61 62 62 64 65 66 68 69
6 6 5 5 5 4 3 2 2 2 2 2 2 3 3 4 4 5 6 7 8 9 10 11 12 13 15 17 18 20 21 23 24 25 26 28 29 30 31 32 33 34 35 36 36 37 38 39 39 40 41 41 41 41 42 42 43 44 46 47 49 50 52 53 53 55 56 57 56 55 57 60 61 62 63 63 63 63 63 63 63 63 65 66 68 69 70 71
6 6 5 6 5 4 2 2 1 1 1 1 2 2 3 4 5 6 7 8 9 10 11 12 13 15 17 18 20 21 22 24 25 26 27 28 30 31 31 32 33 34 35 36 37 38 38 38 39 39 40 40 41 41 41 42 44 46 46 48 49 50 52 53 53 54 56 58 58 57 58 61 62 63 63 62 62 62 62 63 64 66 68 69 71 72 72 73
6 5 5 5 4 3 2 1 1 1 1 1 1 3 4 4 6 7 8 9 10 11 13 14 15 16 18 19 21 22 23 24 25 26 27 28 29 30 32 33 34 35 37 37 37 38 37 37 38 38 39 40 41 42 42 43 45 47 48 48 50 51 52 52 54 55 55 57 59 59 59 61 61 63 63 61 61 62 64 66 67 69 70 71 71 72 72 73
6 5 5 4 4 3 2 2 2 1 1 2 2 3 4 5 7 8 9 10 11 12 14 16 17 18 19 20 22 23 24 25 26 27 28 29 30 32 33 34 35 36 37 38 39 39 38 38 38 38 39 40 42 43 44 46 46 48 49 50 51 52 53 53 55 57 56 58 61 61 60 61 62 63 64 63 64 66 67 68 68 69 69 70 70 71 72 74
6 5 5 4 3 3 2 2 1 1 2 3 4 5 6 7 8 9 10 11 13 14 15 17 18 19 20 22 23 24 25 26 27 28 29 30 32 33 34 36 36 37 38 38 39 39 39 38 38 39 40 42 44 45 46 47 48 49 50 52 53 54 55 55 56 57 58 60 63 64 63 64 64 64 65 66 66 66 67 67 67 67 68 69 70 71 72 71
5 5 4 3 3 2 1 1 1 2 3 4 5 6 7 8 9 10 12 13 14 16 17 18 19 20 21 22 23 23 25 26 28 29 30 31 33 34 35 37 37 38 38 38 38 38 39 39 38 40 42 44 45 46 46 47 48 49 51 53 54 55 56 56 57 57 58 60 64 66 66 66 66 65 65 66 67 67 67 66 65 66 68 69 69 68 67 65
4 4 3 2 1 1 1 1 2 3 4 5 6 7 8 10 11 12 13 15 16 17 18 19 20 20 21 22 23 24 26 27 28 30 31 33 34 35 36 37 37 37 37 37 37 37 39 40 40 40 42 44 45 45 47 48 49 51 52 54 54 55 56 57 58 57 57 61 64 66 68 68 67 66 66 67 69 68 65 65 65 67 67 66 65 64 64 65
4 3 3 2 1 1 1 3 4 5 5 6 7 9 10 11 13 14 15 16 16 17 19 19 20 21 22 23 24 26 27 28 29 31 33 34 35 36 36 37 37 36 36 36 37 38 40 41 41 41 42 44 45 46 48 49 51 52 54 55 55 56 56 58 59 59 59 62 64 66 69 70 67 67 68 69 68 64 63 65 66 65 63 63 63 64 65 67
4 3 2 2 2 2 3 4 5 6 7 8 9 10 12 13 14 15 16 16 17 18 19 20 21 22 23 24 25 26 28 29 31 33 34 36 37 37 37 37 36 36 37 37 38 40 41 42 43 43 44 45 46 48 49 50 52 53 53 54 54 55 55 57 60 61 61 64 65 66 70 71 68 68 70 69 65 62 64 65 64 62 62 63 65 65 66 68
4 3 2 3 3 4 4 6 7 7 8 10 11 12 13 14 15 16 16 17 18 19 19 21 22 23 24 25 26 28 29 31 33 34 35 36 36 36 36 36 36 37 38 39 40 42 43 44 44 45 45 46 46 47 48 50 52 53 53 53 55 56 57 58 60 62 64 65 65 67 71 71 69 70 71 67 63 62 62 61 60 61 63 64 65 67 68 70
4 3 3 4 5 5 6 7 8 9 10 11 12 13 14 15 16 17 17 18 19 19 21 22 23 24 25 26 28 29 31 32 34 35 35 36 36 36 36 36 37 38 39 40 41 42 44 45 46 47 48 48 49 49 51 53 54 54 55 56 58 59 59 60 61 63 66 67 67 70 72 71 71 71 69 65 62 61 59 57 59 62 64 65 67 69 70 71
5 4 4 5 6 7 8 9 10 10 11 11 13 14 15 16 17 17 18 18 19 20 22 22 23 24 26 27 29 31 32 34 35 35 36 36 36 36 36 37 38 39 41 41 42 43 44 45 47 49 50 51 52 52 54 56 57 57 57 58 59 59 60 61 62 65 68 69 70 72 72 72 71 69 65 63 62 61 59 58 60 63 64 66 68 69 71 72
6 6 6 7 8 9 9 10 10 10 11 12 14 15 16 17 17 18 18 19 20 21 22 23 24 26 27 29 31 32 33 35 36 36 37 36 36 36 37 38 40 41 42 42 43 44 44 45 47 48 50 51 51 53 55 57 58 58 57 57 59 60 61 62 65 67 69 71 73 72 71 72 71 66 64 63 62 60 59 59 61 63 65 66 68 69 71 72
7 7 8 8 9 9 9 9 10 11 12 13 15 16 17 17 18 18 19 20 21 22 23 24 25 27 29 30 31 33 34 35 36 37 37 36 37 37 38 39 41 41 42 43 44 44 45 46 47 48 50 50 51 53 55 56 57 57 58 59 61 62 64 66 69 70 70 71 72 70 68 70 69 64 62 62 59 58 58 60 63 65 65 66 68 69 71 72
8 8 8 8 8 9 9 10 11 12 13 15 16 17 17 18 18 19 20 21 21 22 23 25 26 28 29 31 32 34 35 36 36 36 36 37 37 38 39 40 41 42 43 43 44 45 46 47 48 49 51 51 52 54 55 55 56 57 58 61 63 65 68 70 71 71 69 69 69 68 67 68 66 61 60 58 57 58 60 62 64 65 66 66 68 70 72 73
8 8 8 8 8 9 10 11 12 13 15 16 17 17 17 18 19 20 21 21 22 23 24 26 27 29 30 32 34 35 35 36 36 36 36 37 38 39 40 41 41 42 43 44 45 46 47 49 50 51 52 51 52 54 55 56 56 56 58 62 65 67 71 72 71 70 68 67 66 66 67 66 61 58 57 56 56 59 62 63 65 65 66 67 69 71 73 74
7 8 8 9 10 11 12 12 13 15 16 16 17 17 18 19 20 21 21 22 23 24 25 26 28 30 31 33 34 35 35 35 36 36 37 38 39 40 41 42 43 43 44 45 46 47 49 50 51 53 53 52 53 55 55 55 56 57 60 64 67 70 72 72 70 68 66 65 65 65 65 62 57 55 55 56 57 60 63 64 66 66 67 69 71 73 74 75
7 8 9 10 11 12 13 13 14 15 16 16 17 18 19 20 21 21 21 22 23 25 26 27 29 30 32 33 34 34 34 35 36 37 38 39 40 41 42 42 43 44 44 45 47 48 50 52 53 55 55 54 54 56 56 55 56 59 62 66 69 71 71 70 68 66 64 64 64 63 62 59 55 54 55 56 58 61 64 66 68 68 69 71 73 74 75 75
8 9 10 11 12 12 13 14 15 16 16 17 18 19 20 21 21 21 22 23 24 25 27 28 30 31 32 33 33 34 35 36 36 37 38 39 40 41 42 43 43 44 45 47 48 50 52 54 55 56 57 57 56 57 57 57 60 62 64 68 70 71 71 70 67 63 62 62 63 62 61 58 56 56 57 58 60 63 65 68 69 70 71 72 73 74 75 75
Wind_Direction
249 255 260 265 271 272 270 264 260 259 245 238 247 243 237 235 235 238 238 230 228 235 239 238 239 243 242 241 244 248 254 260 264 265 265 267 269 271 273 275 276 275 275 275 276 277 277 275 274 273 273 275 276 278 279 280 285 285 285 287 284 279 280 282 285 286 288 294 298 295 292 294 298 297 295 293 289 288 287 286 287 291 293 290 287 284 283 284
248 254 259 264 268 269 268 263 260 256 246 243 246 239 236 235 233 233 230 223 220 224 233 233 233 238 241 244 248 253 259 263 265 266 267 268 269 271 274 275 276 276 276 277 278 278 275 274 273 273 274 276 278 281 281 283 287 286 285 283 280 281 282 284 285 286 290 294 294 291 293 297 299 298 297 293 293 291 286 287 290 290 286 284 284 284 285 287
247 252 258 263 266 267 266 263 260 256 251 249 240 234 237 237 237 239 239 240 234 234 241 243 241 243 247 250 255 259 263 265 266 268 268 269 270 272 274 275 275 275 276 278 278 276 273 272 274 276 278 278 280 282 283 284 283 283 285 283 280 281 282 284 285 286 290 293 291 290 291 294 294 293 291 290 292 291 288 290 290 286 285 286 288 290 291 291
246 250 256 260 264 265 264 263 260 255 254 251 237 230 236 237 239 242 244 246 244 245 249 250 250 252 254 256 260 262 264 266 267 268 269 270 270 271 272 273 273 274 275 275 274 273 273 274 277 279 280 280 281 281 282 284 282 280 282 282 282 282 283 286 285 288 291 291 290 290 292 291 290 288 288 289 290 290 290 291 287 286 288 288 290 292 292 293
244 249 253 257 261 262 263 263 260 256 253 247 236 230 233 234 235 239 241 243 243 246 251 254 255 256 258 260 260 261 263 265 265 266 268 269 269 269 270 270 271 271 271 271 272 274 276 278 278 279 279 280 281 279 276 278 281 281 280 280 280 281 284 286 286 289 291 291 291 291 291 290 288 286 287 289 289 289 290 289 287 287 288 289 291 293 296 297
242 246 250 254 258 260 263 263 261 256 249 240 233 229 228 228 230 233 236 239 243 247 252 256 258 258 259 260 261 262 263 264 264 264 265 266 267 267 268 269 269 269 269 271 274 276 278 278 277 277 277 277 278 278 277 277 279 281 282 282 283 284 284 284 286 289 289 290 291 291 289 287 285 285 286 288 289 288 287 286 286 286 289 293 296 298 300 298
239 243 247 252 257 260 262 260 256 250 245 237 227 224 227 226 226 230 234 240 245 250 255 258 261 262 261 261 262 262 262 262 262 262 262 264 265 265 265 265 267 269 271 274 276 277 278 278 277 277 277 278 280 281 281 283 283 281 283 285 288 289 288 288 289 288 287 288 288 289 286 284 283 284 285 286 285 285 284 285 286 290 294 296 296 295 293 291
237 241 246 252 258 262 261 251 243 239 241 234 220 219 226 225 226 232 237 242 245 251 257 262 265 266 265 263 262 261 259 259 260 260 260 262 263 264 264 266 270 274 276 277 278 279 278 278 278 278 279 280 282 282 284 287 288 288 289 290 291 292 292 293 293 290 289 288 287 287 283 282 282 283 284 283 283 284 286 287 289 293 294 292 290 288 288 289
237 242 248 254 260 261 252 239 231 231 234 223 212 216 222 223 227 233 238 243 248 254 258 263 266 267 265 262 259 257 257 255 255 256 257 260 262 265 268 272 275 276 277 277 278 278 277 278 279 280 282 283 283 285 288 290 291 293 294 295 295 294 293 293 292 291 289 288 286 284 281 281 282 283 283 282 284 286 286 288 290 291 290 288 287 287 288 289
237 243 250 258 261 252 237 230 226 228 225 211 205 214 220 223 228 234 241 246 251 254 257 260 262 260 257 255 252 250 251 251 249 251 254 259 265 268 271 274 274 275 276 277 276 275 276 278 280 283 285 286 288 291 293 294 295 296 297 298 297 296 294 292 290 290 289 287 285 282 281 281 282 283 282 283 286 288 288 290 291 289 287 287 287 288 288 288
233 241 248 253 252 238 230 227 220 220 215 207 209 217 221 225 231 239 245 247 249 252 254 254 252 249 246 243 241 242 245 247 248 253 258 262 266 268 270 272 273 274 274 275 275 276 278 280 283 285 287 290 293 295 297 298 299 298 299 301 299 298 296 293 291 290 288 286 285 283 282 281 282 283 284 286 288 288 289 290 289 287 286 287 287 287 287 287
226 235 241 241 235 228 227 219 213 215 212 208 214 220 222 228 235 241 242 243 245 245 244 242 240 238 236 235 236 239 243 248 254 259 262 264 266 267 268 270 272 273 272 273 276 280 283 285 287 288 290 293 296 299 300 300 299 299 301 302 301 300 297 294 292 289 288 286 285 282 281 282 284 285 287 288 289 289 290 289 287 286 286 287 287 287 287 286
220 226 228 225 222 220 216 204 202 210 209 205 211 218 224 229 232 235 235 236 237 234 232 231 232 234 235 236 238 243 249 253 256 259 262 264 265 266 267 269 270 272 274 277 280 283 286 287 289 291 293 295 298 301 301 300 300 301 302 301 300 298 295 294 292 291 290 288 285 282 280 282 285 286 287 287 289 291 291 291 290 290 289 288 287 287 287 286
212 215 211 206 206 209 204 190 186 195 198 199 205 214 221 223 225 227 228 229 228 228 227 227 231 235 239 240 242 247 250 253 257 260 263 264 264 265 266 268 271 275 279 281 282 284 286 288 290 292 295 296 300 303 302 301 301 303 303 302 300 295 292 290 289 290 289 287 287 287 286 286 285 284 285 287 288 288 288 289 289 289 289 289 288 288 288 287
202 200 190 188 190 192 192 184 176 179 186 193 199 207 213 216 217 219 222 224 226 228 230 232 236 240 245 246 249 252 254 257 261 263 264 263 265 267 268 272 276 280 283 285 286 287 288 289 291 293 295 298 301 303 302 301 301 303 303 302 300 297 294 292 288 287 284 284 287 289 290 289 287 286 286 286 286 285 284 284 285 285 285 286 287 288 288 287
186 180 172 177 184 181 179 177 174 176 182 191 198 204 209 212 214 217 221 225 229 233 236 240 243 246 250 252 254 257 261 263 263 263 263 263 265 271 277 279 283 286 288 289 291 291 291 291 293 294 296 299 300 301 301 301 301 301 301 300 299 297 296 294 291 288 285 283 284 285 285 286 287 289 289 287 285 284 283 282 282 281 281 281 281 282 282 282
164 161 162 170 174 172 174 177 177 178 183 192 200 205 211 215 218 222 227 231 235 238 241 243 246 249 252 254 256 259 261 262 263 263 262 264 269 276 283 287 290 291 291 292 291 292 292 293 294 296 297 299 298 298 299 299 299 299 298 297 295 294 292 291 290 288 287 286 285 284 283 284 285 287 287 286 286 285 284 283 281 280 280 279 278 278 277 277
144 147 157 165 167 163 167 177 182 184 189 197 204 211 217 221 224 231 237 240 242 242 244 244 245 248 250 253 256 259 260 260 262 263 262 266 274 280 285 289 291 292 293 293 292 292 292 293 294 295 297 297 296 296 297 298 299 299 298 298 297 295 293 291 290 290 290 290 289 287 286 285 285 285 284 284 284 284 283 282 281 280 280 280 279 278 277 277
132 143 156 163 165 161 160 171 179 186 195 202 209 216 222 227 232 240 245 246 245 243 242 242 243 244 247 252 256 258 260 261 262 263 265 270 275 281 286 289 290 292 293 294 295 294 294 293 292 294 295 294 295 297 297 297 297 297 297 297 297 296 295 293 292 291 292 291 290 289 287 286 286 285 284 284 283 282 281 280 280 280 280 280 280 279 279 278
126 143 156 162 163 161 161 167 173 184 197 205 212 218 225 232 237 241 245 244 242 239 237 238 239 240 245 253 256 259 262 264 263 263 267 273 277 282 286 288 290 292 293 293 294 293 292 291 291 291 291 292 295 297 297 296 295 295 294 295 295 295 294 292 292 292 291 291 291 290 288 287 288 287 286 286 285 285 284 283 283 282 282 282 281 281 280 279
119 132 144 151 155 158 162 169 176 184 194 205 211 215 224 231 233 236 239 238 236 235 234 236 238 240 250 258 261 264 263 259 262 265 268 273 280 285 288 290 292 293 294 295 293 291 290 289 290 290 291 293 295 297 298 298 298 298 297 296 295 295 294 293 293 292 292 291 291 290 289 289 289 289 288 288 288 287 287 286 285 285 285 284 284 283 282 281
112 115 121 131 141 150 158 167 177 184 192 205 212 215 219 223 225 230 233 232 233 235 236 244 249 250 257 262 261 260 255 254 261 268 274 279 283 287 291 293 294 295 295 295 294 293 293 291 290 291 292 294 295 296 297 297 297 297 297 298 297 296 295 295 294 294 293 292 291 290 288 288 288 288 288 288 288 287 287 287 287 287 287 286 285 284 283 282
105 103 106 114 125 136 145 155 167 178 188 198 207 210 212 212 216 225 230 230 234 240 244 252 256 256 255 255 254 252 254 262 270 274 278 284 286 289 292 293 295 295 294 293 292 292 292 292 292 293 293 294 294 295 295 294 294 294 294 295 295 295 295 294 293 292 292 292 292 290 288 288 288 288 288 288 288 287 287 287 287 287 286 286 286 285 285 284
98 96 98 104 111 120 129 139 152 164 175 188 198 201 198 196 200 213 226 231 235 237 239 245 250 254 254 252 256 261 263 269 277 281 284 287 290 291 292 293 294 294 294 294 294 294 294 294 295 295 296 296 296 296 296 295 295 294 294 294 293 293 293 293 292 291 291 291 291 291 289 289 289 289 288 288 288 288 287 287 287 287 287 287 287 286 286 285
95 93 94 98 101 107 115 127 139 148 163 183 190 185 175 175 185 202 218 225 229 231 235 246 257 266 269 268 271 274 274 276 281 285 288 290 292 293 294 295 295 296 296 296 297 297 298 298 299 298 298 298 298 298 297 296 296 295 295 295 294 294 293 293 293 292 292 292 292 293 292 291 290 289 288 289 289 288 289 289 289 289 289 289 288 287 287 286
92 91 92 93 93 100 113 125 133 143 166 179 173 160 156 168 185 198 212 220 226 237 251 272 284 288 289 286 284 283 285 287 288 290 292 294 294 295 296 297 297 297 297 298 299 299 300 300 300 300 299 299 298 297 297 296 296 296 296 296 295 295 295 295 294 294 294 293 294 295 295 294 292 291 291 291 291 291 291 291 291 290 290 289 289 289 288 287
88 88 88 88 89 99 118 132 139 150 166 164 150 148 159 177 193 197 212 227 239 269 291 301 303 302 302 300 296 295 295 296 297 298 298 298 298 297 297 298 298 299 300 301 301 302 302 302 301 300 300 299 299 298 298 298 298 297 297 297 297 297 297 296 296 296 296 295 296 296 294 294 293 293 293 292 292 291 291 291 291 290 290 290 290 290 290 289
85 86 86 86 88 97 113 129 138 146 149 143 145 160 171 182 189 183 199 257 307 326 327 321 315 312 310 307 304 303 302 302 302 302 301 300 299 299 298 299 299 300 301 302 302 302 302 301 301 301 301 301 301 301 300 300 300 300 300 299 300 299 299 299 299 299 298 298 298 295 293 293 293 294 294 294 293 293 293 293 293 293 292 292 292 291 291 291
81 83 86 86 85 93 103 115 135 148 149 152 164 172 174 175 167 122 15 350 349 341 334 328 322 317 313 311 309 307 305 304 302 302 301 300 300 300 301 302 302 303 303 303 303 303 303 303 303 303 303 303 303 302 302 302 302 302 301 301 302 301 301 301 301 301 300 300 300 297 295 296 296 297 298 298 298 297 297 296 294 293 293 292 292 292 291 291
76 79 84 81 77 89 99 121 155 169 174 180 175 175 162 71 32 19 7 355 349 341 332 326 322 317 314 312 311 308 306 305 304 304 303 302 302 303 303 303 304 304 305 305 305 305 305 305 304 304 304 304 304 304 304 303 303 303 302 302 302 302 302 302 301 300 300 300 301 300 300 300 298 299 301 300 300 299 298 296 294 293 293 292 291 291 290 290
70 74 78 73 73 89 109 151 172 178 180 192 135 55 25 23 16 8 359 345 338 335 328 323 319 316 313 312 310 310 308 307 308 307 306 306 306 306 306 306 306 306 307 307 307 307 306 306 306 306 306 305 306 306 306 305 305 305 304 304 303 302 302 302 302 302 302 303 304 303 302 300 300 301 301 301 300 298 297 295 294 293 292 291 290 289 289 288
65 68 67 60 61 67 82 138 180 357 38 21 20 23 18 12 4 356 346 336 333 330 325 322 319 316 315 314 312 312 310 310 310 310 308 307 307 307 307 307 306 306 306 306 306 307 307 307 307 307 306 306 306 307 307 307 307 307 307 307 306 305 304 304 305 305 306 306 306 306 305 303 302 302 302 300 299 297 296 294 294 294 293 293 292 292 291 291
55 53 51 41 35 35 37 45 19 11 19 17 13 15 9 356 345 340 336 333 331 327 322 320 319 318 317 316 315 314 313 312 311 310 308 308 307 307 306 306 306 306 307 308 309 309 309 309 309 308 308 307 307 307 307 308 309 309 310 310 311 311 311 311 310 309 308 307 307 308 307 305 304 303 301 300 299 298 298 298 299 299 299 298 297 296 295 294
45 42 39 31 28 29 30 26 15 4 4 7 5 359 353 336 331 335 334 330 325 321 319 319 319 319 317 315 315 313 312 312 311 310 309 308 309 310 310 311 311 311 311 311 311 311 311 311 310 310 310 309 309 310 311 311 311 312 313 314 314 314 314 314 312 311 310 308 308 308 306 304 304 303 302 301 301 301 302 302 302 301 300 299 297 296 295 294
38 38 36 34 34 34 34 26 6 348 349 2 358 340 331 327 330 335 331 325 320 318 318 319 319 318 316 315 314 312 311 311 311 311 310 311 312 313 314 314 314 313 312 312 311 311 311 311 311 311 312 312 312 313 313 313 313 313 314 315 315 314 314 313 313 312 310 308 308 309 306 305 305 304 303 304 304 304 303 302 301 300 300 299 298 297 295 294
28 31 35 35 34 31 28 17 356 4 360 354 340 324 323 328 331 330 325 321 320 318 319 319 319 317 315 314 313 312 312 312 313 314 314 315 315 315 314 314 313 313 312 311 311 311 312 313 313 314 315 314 314 313 313 313 313 314 314 314 314 314 314 314 312 311 310 308 309 310 308 307 306 304 305 305 305 304 304 303 303 303 302 300 298 295 293 292
13 19 25 21 16 10 10 14 20 17 346 327 324 319 321 327 326 323 320 318 318 319 319 319 318 317 316 314 313 313 314 315 317 317 317 317 317 316 315 314 314 314 313 313 313 313 314 315 316 316 316 315 314 315 315 315 315 315 316 315 315 314 314 314 313 313 313 311 311 311 309 308 307 307 307 308 307 307 307 306 305 303 300 297 295 293 291 290
4 10 12 5 2 4 15 29 18 338 318 319 318 317 321 325 322 319 318 318 319 320 320 320 318 317 316 315 316 317 319 320 320 319 318 318 318 317 317 316 316 316 316 316 316 316 316 316 317 317 316 316 317 317 317 317 317 317 317 316 316 316 316 316 316 316 315 312 311 311 310 309 309 309 310 311 310 309 307 306 303 300 297 294 292 292 291 292
359 2 358 356 360 12 33 24 319 310 315 317 315 319 325 324 320 319 320 321 322 322 321 319 318 317 317 318 319 321 322 321 320 320 319 318 319 319 318 318 318 318 318 318 318 318 317 318 319 319 318 318 318 318 317 317 317 317 317 317 318 318 318 318 318 317 315 313 311 311 310 311 311 311 311 311 309 307 305 303 300 298 296 294 294 295 295 295
349 348 344 343 352 4 347 311 303 308 312 313 318 325 326 322 322 323 324 324 323 321 320 319 319 319 320 322 323 323 323 321 321 320 320 320 321 321 321 321 320 320 320 319 318 318 318 318 319 319 318 318 317 317 317 318 319 319 319 319 320 320 320 318 317 316 314 312 311 311 310 311 311 311 311 309 308 307 305 302 301 299 298 298 298 298 298 298
329 325 318 310 303 293 296 301 304 308 314 321 327 328 325 324 325 325 324 323 321 320 320 320 322 323 324 325 324 323 323 322 322 322 323 323 323 323 322 322 321 320 320 320 319 319 319 319 319 319 317 317 318 319 320 321 321 321 321 322 322 321 319 317 316 315 313 311 311 311 309 310 311 311 310 309 309 307 304 302 301 301 300 299 299 300 300 300
309 303 296 290 285 289 300 307 310 315 323 328 328 327 326 326 325 324 323 322 321 322 323 324 325 326 326 325 325 325 325 325 325 325 325 325 325 325 324 323 322 321 321 320 320 320 319 318 319 320 320 320 321 321 322 322 321 322 323 322 321 319 319 317 316 315 313 312 312 310 308 310 312 311 310 310 309 306 303 303 303 303 302 302 302 302 302 302
297 292 291 291 294 305 314 315 316 321 327 329 328 327 326 325 323 323 323 323 324 325 325 326 326 326 326 326 326 327 327 328 328 328 327 327 327 326 324 323 322 321 321 321 321 320 320 320 320 321 321 322 322 322 322 322 322 323 322 321 320 320 320 318 317 315 313 312 312 309 308 311 312 311 312 312 309 306 304 304 304 303 302 303 303 303 303 303
294 294 300 305 310 316 317 316 319 324 328 328 327 326 324 323 324 324 325 325 326 326 326 327 327 326 327 328 328 328 329 330 330 329 329 328 327 326 324 323 323 322 322 322 322 322 322 322 323 323 322 322 322 323 322 322 322 323 322 322 322 321 320 318 317 315 313 313 313 310 311 313 313 313 314 312 307 305 304 303 302 302 302 303 304 304 305 306
297 302 311 313 314 315 315 318 322 325 327 326 325 324 323 323 324 325 326 326 326 327 326 326 327 327 328 329 329 330 331 332 331 331 330 328 327 326 325 324 324 323 323 323 323 323 324 324 325 325 325 325 325 325 323 322 323 323 324 324 322 321 319 318 317 316 314 314 313 312 314 314 313 315 314 310 306 305 304 304 303 304 305 306 306 307 308 308
303 310 314 313 312 313 315 319 321 324 325 325 324 324 323 324 325 326 326 326 326 326 326 327 328 329 330 331 331 332 333 333 333 331 330 328 327 326 325 325 325 324 324 324 324 325 325 326 326 327 327 327 327 326 325 324 325 325 325 323 321 320 321 320 318 317 315 314 313 314 315 314 314 316 313 309 307 307 307 307 307 307 308 308 308 308 309 310
305 307 307 306 307 310 315 319 322 324 324 324 323 323 323 324 325 325 325 325 325 326 327 328 330 330 332 333 334 335 334 334 333 331 330 328 327 326 326 326 326 325 325 325 326 326 326 326 327 327 327 328 327 326 326 326 326 326 325 323 323 323 322 321 319 318 317 315 315 316 316 314 316 317 313 310 310 310 310 311 310 310 310 310 310 310 310 311
298 299 299 302 306 313 319 322 323 323 323 322 322 322 323 323 324 324 324 324 324 326 328 330 330 332 334 335 336 336 335 334 333 331 329 328 327 327 326 326 326 326 326 327 327 327 327 327 327 327 328 329 328 326 326 325 325 325 325 325 325 324 322 321 320 319 318 317 317 318 316 316 318 317 313 313 313 313 314 314 313 313 312 311 310 310 311 312
298 301 304 310 316 321 323 322 322 321 321 321 321 322 322 322 323 323 323 323 325 328 329 330 332 334 336 337 337 336 335 334 332 330 329 328 328 328 327 327 327 328 328 328 328 328 328 327 327 327 328 329 327 325 325 324 325 326 326 325 324 324 323 323 321 320 319 318 319 319 318 319 320 317 315 315 316 315 316 316 315 314 313 311 310 311 313 314
305 310 314 318 322 322 321 320 319 319 320 321 320 321 321 321 322 321 322 324 326 329 330 332 334 337 337 337 337 336 335 333 331 330 329 329 328 328 328 329 329 329 329 329 329 329 329 328 328 328 328 328 326 324 325 325 326 327 326 325 325 325 325 324 322 321 320 320 321 321 320 320 320 317 316 317 317 317 317 317 316 315 314 313 313 314 315 316
314 317 319 320 320 319 318 318 318 319 320 319 319 320 320 320 320 320 322 325 327 330 332 334 336 337 338 337 337 335 333 332 331 330 330 329 329 329 330 331 331 331 331 330 330 330 330 330 329 328 328 328 326 325 325 326 326 327 327 327 328 328 327 325 323 322 322 323 323 323 321 321 320 317 316 317 317 318 319 318 318 317 316 316 316 317 317 317
318 317 318 318 317 316 316 317 318 318 318 318 319 320 319 318 319 321 324 326 329 331 334 336 337 338 338 337 336 334 333 332 331 331 330 330 331 332 332 333 332 332 332 332 332 332 332 331 330 328 328 329 328 326 327 327 327 328 329 330 329 328 327 326 325 324 324 325 325 323 322 321 319 317 317 317 318 319 320 320 320 319 318 317 317 317 317 317